sat.trackr.live / text

‹ back to catalog

STARLINK-4729

NORAD 53804 · 2022-111AH

PAYLOAD ACTIVE UNKNOWN

§ Identity

Operator
Country
US
Launch date
2022-09-11
Launch site
AFETR
Launch vehicle
Mass (kg)
RCS (m²)

Purposes: comms

External: N2YO · Heavens-Above · Gunter

§ Orbital elements

Epoch: 2026-05-25T02:12:51.009120Z

Period
95.44 min
Inclination
53.2132°
Eccentricity
0.0001119
Mean motion
15.08839807 rev/d
Perigee alt
539.0 km
Apogee alt
540.5 km
Semi-major
6,917.9 km
B*
1.3158e-6
RAAN
275.9193°
Arg perigee
105.9328°
Mean anomaly
254.1787°
Rev number
20,542

§ Raw data

STARLINK-47291 53804U 22111AH  26145.09225705 -.00000267  00000+0  13158-5 0  99932 53804  53.2132 275.9193 0001119 105.9328 254.1787 15.08839807205420

JSON: /api/v1/satellites/53804 · /tle

For live sub-satellite position, see the globe view (requires WebGL).

§ Visibility from observer

Set your observer location to see the next 7 days of passes ≥ 10°. The values pass through the URL so the page stays shareable.

No JS? Fill the form by hand. The geolocation button needs JavaScript.